sat.trackr.live / text

‹ back to catalog

STARLINK-33716

NORAD 63486 · 2025-070AC

PAYLOAD ACTIVE UNKNOWN

§ Identity

Operator
Country
US
Launch date
2025-04-06
Launch site
AFETR
Launch vehicle
Mass (kg)
RCS (m²)

Purposes: comms

External: N2YO · Heavens-Above · Gunter

§ Orbital elements

Epoch: 2026-05-25T03:50:30.590592Z

Period
94.27 min
Inclination
43.0010°
Eccentricity
0.0001414
Mean motion
15.27588078 rev/d
Perigee alt
482.1 km
Apogee alt
484.0 km
Semi-major
6,861.2 km
B*
4.7110e-4
RAAN
187.7505°
Arg perigee
271.7113°
Mean anomaly
88.3577°
Rev number
6,467

§ Raw data

STARLINK-337161 63486U 25070AC  26145.16007628  .00012727  00000+0  47110-3 0  99932 63486  43.0010 187.7505 0001414 271.7113  88.3577 15.27588078 64674

JSON: /api/v1/satellites/63486 · /tle

For live sub-satellite position, see the globe view (requires WebGL).

§ Visibility from observer

Set your observer location to see the next 7 days of passes ≥ 10°. The values pass through the URL so the page stays shareable.

No JS? Fill the form by hand. The geolocation button needs JavaScript.